Wind_Speed
33 32 31 32 32 33 34 34 35 36 35 35 35 34 33 32 31 31 30 31 31 30 29 28 26 25 24 24 24 24 24 24 24 25 26 27 27 28
34 34 34 33 34 34 33 34 35 35 36 36 36 36 34 33 32 32 32 31 32 31 30 28 26 25 24 24 24 24 24 24 25 26 27 27 28 29
35 35 36 35 35 35 35 34 34 35 36 36 36 35 34 34 34 34 33 32 32 31 30 28 26 25 24 24 24 24 24 25 25 26 27 28 28 29
35 35 36 36 36 35 35 35 34 33 33 34 34 34 33 33 34 34 34 33 32 30 28 26 25 24 23 23 23 24 24 24 25 25 26 27 28 28
33 34 35 35 35 35 35 35 34 33 32 32 31 30 30 31 31 32 31 30 29 28 27 25 23 22 22 23 23 23 24 24 25 26 27 28 29 29
31 31 32 33 32 33 33 33 32 31 29 29 28 28 28 27 27 27 26 24 23 23 22 22 21 21 22 22 22 23 23 24 25 26 27 28 29 30
27 27 28 28 29 28 28 28 28 28 27 27 26 26 25 24 23 22 21 21 19 19 20 19 19 20 20 20 21 22 22 23 25 26 26 27 29 30
24 24 25 25 25 25 26 26 25 25 25 24 23 23 23 21 20 19 19 18 18 18 18 18 19 19 19 20 21 21 21 22 23 24 25 27 28 30
21 22 22 21 21 21 21 21 22 22 20 20 20 20 19 19 18 18 17 17 17 17 17 17 18 18 18 18 18 19 20 21 22 24 25 27 28 29
19 19 19 19 19 18 18 16 17 17 17 18 18 18 17 17 16 16 16 15 15 15 16 16 16 16 16 16 16 18 19 20 21 23 24 25 26 28
18 18 18 18 18 16 14 14 14 14 14 13 14 13 13 14 14 14 14 14 14 14 14 14 14 14 14 14 15 17 17 18 19 20 21 22 22 23
15 16 16 17 17 16 14 13 13 13 12 12 11 11 11 11 11 12 12 12 12 12 12 12 12 12 12 12 13 13 14 15 15 16 16 16 16 17
12 13 15 16 18 17 15 13 11 11 11 11 10 10 9 9 10 10 11 11 11 11 10 10 10 9 9 9 9 9 9 9 10 10 11 13 14 15
9 11 13 16 17 16 16 14 12 11 10 10 9 9 9 9 9 9 9 9 9 8 8 7 6 6 5 5 4 4 5 6 8 9 11 13 15 16
7 10 13 16 16 16 15 14 12 11 10 9 9 9 9 9 9 9 8 8 7 7 6 6 4 3 2 0 1 3 4 6 8 9 11 13 14 16
9 11 13 15 16 15 14 13 13 11 10 9 9 9 9 9 9 9 8 8 7 7 7 6 5 4 3 3 3 3 5 6 8 9 11 12 14 15
13 13 14 15 16 15 14 14 13 11 11 10 10 9 9 10 10 10 9 9 8 8 8 7 6 4 3 2 3 3 4 5 7 9 10 12 14 15
16 16 16 16 16 15 14 14 13 12 11 11 11 10 11 11 11 10 10 10 10 9 8 7 5 3 2 2 2 3 4 6 7 9 11 12 14 15
18 17 16 16 16 15 15 14 14 13 12 12 12 12 12 12 12 12 11 10 10 8 7 5 4 3 2 2 3 4 5 6 8 10 12 13 14 15
19 18 17 17 17 16 15 14 14 14 14 13 13 13 13 13 12 11 10 9 8 7 6 4 3 2 2 2 3 4 6 8 10 11 12 14 15 16
20 19 18 18 17 17 17 16 16 15 15 14 14 13 13 12 11 10 9 8 7 5 4 3 2 2 2 3 4 6 7 9 10 12 13 15 16 17
20 19 18 18 18 17 17 16 15 15 14 13 13 12 12 11 10 8 7 6 5 4 3 2 1 1 2 4 6 7 9 10 12 13 15 16 17 18
18 18 17 17 16 16 15 15 14 13 13 12 12 11 10 9 8 7 6 5 4 3 2 1 1 3 4 6 8 10 11 13 14 15 16 17 18 19
Wind_Direction
251 253 255 256 257 257 256 254 251 251 251 251 252 256 258 257 258 260 260 261 262 263 265 267 269 270 270 271 273 274 275 275 275 275 275 274 274 274
250 252 254 256 257 254 255 254 253 253 252 252 253 254 255 256 257 259 260 261 262 261 261 263 266 267 268 270 273 275 275 276 277 277 277 277 277 276
250 252 253 255 257 256 254 254 255 255 253 252 253 253 254 255 256 259 261 261 260 259 260 262 263 264 267 270 273 275 277 278 279 278 279 280 280 280
250 251 252 253 254 253 253 253 253 253 253 254 253 254 255 255 256 257 260 259 258 259 259 259 261 263 266 270 273 274 277 279 281 281 280 282 283 283
250 250 250 251 253 252 253 254 253 254 255 255 255 255 256 256 256 257 259 259 259 257 257 258 259 261 265 268 272 276 279 280 282 282 282 283 285 284
250 251 250 251 252 253 252 251 251 251 252 252 252 252 254 255 254 254 253 253 254 256 255 254 256 260 263 267 273 277 279 280 283 285 286 286 286 285
251 251 250 248 246 246 245 245 245 245 247 248 247 247 247 247 246 247 246 248 249 253 252 252 255 259 263 268 273 279 283 285 286 286 287 288 287 287
248 248 247 247 243 242 241 239 237 237 238 239 238 238 239 238 239 240 240 243 245 247 249 251 254 258 264 271 277 282 287 289 289 289 289 290 291 292
245 243 243 240 238 237 234 229 225 222 222 224 225 227 228 230 231 233 236 239 240 242 244 248 253 259 267 274 280 285 288 291 291 293 294 294 295 295
245 240 237 233 228 228 224 219 215 211 211 214 216 219 222 225 227 230 232 235 239 241 245 251 257 263 270 275 280 286 290 294 296 296 297 299 300 301
242 237 234 229 222 219 214 209 205 202 201 205 208 210 214 218 221 225 228 232 238 243 248 253 258 265 271 278 283 288 292 295 300 303 306 308 311 313
237 230 224 219 213 207 205 203 200 198 199 203 203 203 209 214 217 221 225 229 235 241 245 250 256 263 270 278 284 289 295 301 306 313 320 326 331 336
229 222 214 208 202 199 197 193 190 190 193 199 204 204 205 209 211 215 220 224 230 234 240 245 251 257 268 278 288 298 307 316 327 337 347 354 0 5
210 206 200 197 195 192 189 185 182 182 185 191 196 201 203 204 203 204 207 214 219 224 226 226 233 247 264 281 301 324 343 358 3 6 10 13 16 18
172 179 182 183 183 182 179 178 177 179 184 188 190 191 193 196 197 196 194 198 200 200 200 198 205 217 220 218 35 32 27 23 22 22 22 20 20 20
125 146 159 168 171 170 170 169 171 174 177 179 180 182 184 184 182 177 177 177 175 169 165 164 163 155 135 101 66 44 29 23 20 21 20 18 17 17
105 123 137 147 154 158 160 162 166 168 167 167 167 169 169 169 168 166 163 159 155 152 149 147 144 139 121 80 52 33 17 8 6 8 8 8 9 9
99 110 121 131 140 146 150 153 154 154 155 158 160 161 159 157 156 154 151 149 146 144 141 139 136 127 104 71 30 9 1 357 356 357 357 357 358 359
93 103 111 119 128 134 138 142 145 146 147 148 150 150 150 148 146 144 143 143 142 140 137 132 124 110 76 30 9 359 353 351 351 350 350 350 349 349
88 95 103 111 117 123 129 132 135 136 138 139 140 142 143 142 141 139 138 137 137 136 134 126 109 79 37 10 1 356 352 350 348 347 346 345 344 344
86 92 98 105 111 115 120 123 126 129 130 131 133 135 137 137 136 135 134 134 133 133 129 116 88 60 33 12 1 356 352 348 346 344 343 342 341 340
85 90 96 102 107 111 115 119 122 126 128 129 130 132 133 133 133 132 132 132 131 128 121 112 93 50 9 353 348 344 340 338 338 337 337 337 336 337
84 89 94 100 105 109 112 116 119 122 124 125 126 128 130 131 133 134 135 136 137 136 133 120 344 333 329 328 327 327 327 328 329 330 331 333 334 335
Height
5822 5823 5825 5826 5827 5828 5829 5830 5832 5833 5835 5837 5839 5841 5842 5843 5845 5846 5847 5849 5850 5851 5851 5851 5851 5851 5851 5851 5851 5850 5849 5848 5847 5846 5845 5844 5843 5842
5812 5814 5815 5817 5818 5819 5820 5821 5823 5824 5826 5828 5830 5832 5834 5835 5837 5838 5839 5840 5841 5842 5843 5844 5844 5845 5845 5845 5844 5844 5843 5842 5842 5841 5840 5838 5837 5835
5803 5805 5806 5808 5809 5810 5811 5813 5814 5815 5817 5819 5821 5823 5825 5826 5828 5829 5831 5832 5833 5834 5835 5836 5837 5838 5838 5838 5838 5838 5837 5836 5836 5835 5834 5832 5831 5829
5794 5795 5797 5798 5800 5801 5802 5804 5805 5806 5809 5811 5812 5814 5816 5818 5819 5821 5822 5824 5825 5826 5828 5829 5830 5831 5832 5832 5832 5832 5831 5830 5829 5828 5827 5826 5824 5822
5784 5786 5787 5789 5790 5792 5794 5795 5797 5799 5801 5803 5804 5806 5808 5809 5811 5813 5815 5817 5818 5819 5821 5823 5824 5825 5826 5827 5826 5826 5825 5824 5823 5822 5821 5820 5818 5816
5775 5777 5778 5779 5781 5782 5784 5786 5788 5791 5793 5795 5797 5799 5800 5802 5804 5806 5808 5810 5812 5813 5815 5817 5818 5820 5821 5821 5821 5821 5820 5819 5817 5816 5815 5813 5811 5809
5767 5768 5770 5771 5772 5774 5776 5778 5780 5783 5785 5787 5790 5792 5794 5796 5798 5800 5803 5805 5806 5808 5810 5812 5813 5815 5815 5816 5816 5815 5814 5813 5812 5810 5808 5806 5804 5802
5760 5761 5762 5764 5765 5767 5769 5771 5773 5776 5778 5781 5783 5785 5788 5790 5793 5795 5798 5800 5802 5804 5806 5808 5809 5810 5810 5811 5810 5810 5809 5808 5806 5804 5803 5800 5797 5794
5753 5754 5756 5757 5759 5761 5762 5764 5767 5769 5772 5775 5777 5780 5783 5785 5788 5791 5793 5796 5797 5800 5802 5803 5804 5805 5806 5806 5805 5805 5804 5802 5801 5799 5796 5794 5790 5787
5747 5748 5749 5751 5753 5756 5758 5760 5762 5764 5767 5771 5773 5776 5779 5781 5784 5787 5789 5792 5794 5796 5798 5799 5800 5801 5801 5801 5801 5800 5799 5798 5796 5793 5791 5787 5784 5780
5740 5742 5744 5746 5749 5752 5754 5756 5759 5761 5764 5768 5770 5773 5776 5778 5781 5784 5786 5789 5790 5792 5794 5795 5796 5797 5797 5797 5797 5796 5795 5793 5791 5788 5785 5782 5778 5774
5734 5736 5739 5742 5745 5748 5751 5753 5756 5759 5762 5765 5768 5771 5773 5776 5779 5781 5783 5785 5787 5789 5790 5792 5793 5793 5794 5793 5793 5792 5791 5789 5787 5784 5781 5778 5774 5770
5729 5732 5734 5738 5741 5745 5749 5752 5755 5758 5761 5764 5767 5769 5772 5774 5776 5778 5780 5783 5784 5786 5788 5789 5790 5790 5791 5791 5790 5789 5787 5786 5784 5781 5779 5776 5772 5768
5726 5729 5731 5735 5739 5743 5747 5751 5754 5758 5761 5763 5765 5768 5770 5772 5774 5776 5778 5780 5782 5784 5785 5786 5787 5788 5789 5788 5788 5787 5785 5784 5782 5780 5777 5774 5771 5767
5725 5727 5731 5734 5739 5743 5747 5751 5754 5757 5760 5762 5765 5767 5769 5771 5773 5775 5777 5779 5780 5782 5784 5785 5786 5787 5787 5787 5787 5786 5785 5783 5781 5779 5776 5773 5770 5767
5727 5729 5732 5735 5740 5744 5748 5751 5755 5758 5760 5762 5765 5767 5769 5771 5773 5775 5777 5778 5780 5782 5783 5784 5785 5786 5787 5787 5786 5785 5784 5783 5781 5779 5776 5773 5770 5766
5731 5733 5735 5738 5742 5746 5749 5753 5756 5759 5761 5763 5765 5767 5769 5771 5773 5775 5777 5779 5781 5782 5783 5785 5786 5786 5786 5786 5786 5785 5784 5782 5780 5778 5775 5772 5769 5765
5737 5738 5740 5743 5746 5749 5752 5755 5758 5760 5762 5764 5766 5768 5771 5772 5774 5776 5778 5780 5782 5783 5784 5785 5786 5786 5787 5786 5786 5784 5783 5781 5779 5777 5774 5771 5768 5765
5745 5745 5746 5748 5750 5753 5755 5758 5760 5762 5764 5766 5768 5771 5773 5774 5776 5778 5780 5781 5783 5784 5785 5786 5786 5786 5786 5786 5785 5783 5782 5780 5778 5775 5772 5770 5766 5763
5752 5752 5753 5754 5756 5757 5759 5761 5764 5766 5767 5769 5771 5773 5775 5777 5779 5780 5782 5783 5784 5785 5786 5786 5786 5786 5786 5785 5784 5782 5780 5778 5776 5773 5771 5768 5764 5761
5760 5760 5760 5761 5762 5763 5764 5766 5768 5770 5771 5773 5775 5776 5778 5779 5781 5782 5784 5785 5786 5786 5786 5786 5786 5785 5785 5784 5782 5781 5779 5776 5774 5772 5769 5766 5762 5759
5768 5767 5767 5767 5768 5769 5770 5771 5772 5774 5775 5777 5778 5779 5781 5782 5783 5784 5785 5786 5786 5786 5786 5786 5785 5785 5784 5783 5781 5779 5777 5775 5772 5769 5766 5763 5760 5756
5775 5774 5774 5774 5774 5774 5775 5776 5777 5778 5779 5780 5781 5782 5783 5784 5785 5785 5786 5786 5786 5786 5786 5785 5785 5784 5782 5781 5779 5777 5775 5772 5770 5767 5764 5760 5757 5753